#timestamp,LO_Frequency,Hit,StdDev 
1580065215.3,286046998.1,N
1580065235.2,286046997.9,N
1580065255.0,286047002.5,N
1580065255.9,286047002.5,N
1580065275.7,286047007.0,N
1580065295.6,286047007.4,N
1580065315.4,286047006.3,N
1580065335.3,286047000.1,N
1580065355.1,286046999.0,N
1580065375.8,286046997.6,N
1580065395.7,286047001.9,N
1580065415.5,286046999.2,N
1580065435.4,286047001.8,N
1580065455.2,286046997.6,N
1580065475.0,286046997.3,N
1580065475.9,286046997.3,N
1580065495.8,286046993.8,N
1580065515.6,286046997.6,N
1580065535.4,286046998.6,N
1580065555.3,286047001.0,N
1580065575.1,286046997.2,N
1580065595.9,286046995.5,N
1580065615.7,286047002.8,N
1580065635.5,286046996.4,N
1580065655.4,286046999.7,N
1580065675.2,286046999.7,N
1580065695.0,286047002.1,N
1580065695.9,286047002.1,N
1580065715.8,286047007.2,N
1580065735.6,286047009.2,N
1580065755.5,286047006.1,N
1580065775.3,286047010.0,N
1580065795.1,286047011.7,N
1580065815.9,286047009.1,N
1580065835.7,286047010.4,N
1580065855.5,286047010.7,N
1580065875.4,286047013.9,N
1580065895.2,286047003.2,N
1580065915.1,286047003.1,N
1580065916.0,286047003.1,N
1580065935.8,286047003.6,N
1580065955.6,286047000.5,N
1580065975.5,286047000.1,N
1580065995.3,286046999.2,N
1580066015.1,286046995.1,N
1580066035.9,286046998.5,N
1580066055.7,286046999.1,N
1580066075.6,286046996.8,N
1580066095.4,286046998.8,N
1580066115.2,286046997.1,N
1580066135.1,286046998.8,N
1580066136.0,286046998.8,N
1580066155.8,286047000.7,N
1580066175.6,286047001.5,N
1580066195.5,286047010.8,N
1580066215.3,286047002.1,N
1580066235.2,286047003.0,N
1580066255.9,286047003.5,N
1580066275.7,286047004.8,N
1580066295.6,286047009.1,N
1580066315.4,286047008.5,N
1580066335.2,286047003.7,N
1580066355.1,286047001.6,N
1580066356.0,286047001.6,N
1580066375.8,286046999.9,N
1580066395.7,286047001.6,N
1580066415.5,286047005.7,N
1580066465.4,286047003.0,E
1580066475.3,286047001.5,N
1580066495.1,286047003.5,P
1580066515.9,286047001.9,N
1580066535.7,286046999.1,N
1580066555.5,286046999.3,N
1580066575.4,286047002.3,N
1580066595.2,286046999.6,N
1580066615.1,286046998.6,N
1580066616.0,286046998.6,N
1580066635.8,286047000.3,N
1580066655.6,286047004.0,N
1580066675.5,286047004.4,N
1580066695.3,286046998.5,N
1580066715.1,286046996.0,N
1580066735.9,286046996.0,N
1580066755.7,286046997.6,N
1580066775.6,286046998.3,N
1580066795.4,286047001.5,N
1580066815.2,286046998.6,N
1580066835.1,286047004.8,N
1580066836.0,286047004.8,N
1580066855.8,286047001.1,N
1580066875.6,286046999.4,N
1580066895.5,286046996.0,N
1580066915.3,286046992.2,N
1580066935.2,286046998.1,N
1580066955.9,286046994.5,N
1580066975.7,286046993.6,N
1580066995.6,286047003.4,N
1580067015.4,286047004.8,N
1580067035.2,286047003.7,N
1580067055.1,286047006.1,N
1580067056.0,286047006.1,N
1580067075.8,286047009.5,N
1580067095.7,286047009.1,N
1580067115.5,286047012.4,N
1580067135.3,286047014.0,N
1580067155.2,286047012.9,N
1580067175.0,286047010.9,N
1580067205.9,286047016.3,E
1580067215.9,286047011.7,N
1580067235.7,286046997.1,P
1580067255.5,286046998.0,N
1580067275.4,286046996.7,N
1580067295.2,286047000.1,N
1580067315.1,286047004.4,N
1580067316.0,286047004.4,N
1580067335.8,286047003.2,N
1580067355.6,286047009.5,N
1580067375.5,286047011.4,N
1580067395.3,286047008.2,N
1580067415.1,286047011.2,N
1580067435.9,286047017.6,Y
1580067455.7,286047018.0,P
1580067475.6,286047018.9,N
1580067495.4,286047023.4,P
1580067515.2,286047023.7,Y
1580067535.1,286047006.6,P
1580067536.0,286047006.6,N
1580067555.8,286047000.9,N
1580067575.6,286046994.6,N
1580067595.5,286046986.3,N
1580067615.3,286046996.1,N
1580067635.2,286046994.4,N
1580067655.9,286046987.4,N
1580067675.7,286046988.5,N
1580067695.6,286046992.8,N
1580067715.4,286046993.1,N
1580067735.2,286046987.6,N
1580067755.1,286046992.4,N
1580067756.0,286046992.4,N
1580067775.8,286046994.3,N
1580067795.7,286046987.9,N
1580067815.5,286046982.1,N
1580067835.3,286046985.3,N
1580067855.2,286046990.8,N
1580067875.0,286046994.4,N
1580067875.9,286046994.4,N
1580067895.7,286046997.9,N
1580067915.6,286046999.1,N
1580067935.4,286046995.4,N
1580067955.3,286046997.7,N
1580067975.1,286047002.3,N
1580067976.0,286047002.3,N
1580067995.8,286046998.4,N
1580068015.7,286046998.1,N
1580068035.5,286047003.9,N
1580068055.3,286047009.6,N
1580068075.2,286047009.6,N
1580068095.0,286047006.1,N
1580068095.9,286047006.1,N
1580068115.8,286047004.9,N
1580068135.6,286047004.9,N
1580068155.4,286047003.5,N
1580068175.3,286046995.0,N
1580068195.1,286046991.6,N
1580068215.8,286046996.2,N
1580068235.7,286046990.8,N
1580068255.5,286046990.9,N
1580068275.4,286046991.4,N
1580068295.2,286046991.3,N
1580068315.0,286046987.5,N
1580068315.9,286046987.5,N
1580068335.8,286046983.3,N
1580068355.6,286046985.2,N
1580068375.5,286046981.4,N
1580068395.3,286046979.6,N
1580068415.1,286046979.1,N
1580068435.9,286046977.3,N
1580068455.7,286046977.4,N
1580068475.5,286046977.1,N
1580068495.4,286046975.6,N
1580068515.2,286046971.0,N
1580068535.0,286046976.7,N
1580068536.0,286046976.7,N
1580068555.8,286046975.2,N
1580068575.6,286046972.8,N
1580068595.5,286046976.1,N
1580068615.3,286046978.7,N
1580068635.1,286046975.8,N
1580068655.9,286046978.0,N
1580068675.7,286046979.4,N
1580068695.6,286046980.3,N
1580068715.4,286046979.6,N
1580068735.2,286046981.6,N
1580068755.1,286046979.5,Y
1580068756.0,286046979.5,P
1580068775.8,286046997.2,N
1580068795.7,286047001.2,N
